Regional Weather Roundup
Issued by NWS

Home | Current Version | Previous Version | Text Only | Print | Product List | Glossary Off
Versions: 1 2 3 4 5 6 7 8 9 10 11 12 13 14 15 16 17 18 19 20 21 22 23 24 25 26 27 28 29 30 31 32 33 34 35 36 37 38 39 40 41 42 43 44 45 46 47 48 49 50

000
ASUS43 KIND 250409
RWRIN

WEATHER ROUNDUP FOR INDIANA
NATIONAL WEATHER SERVICE INDIANAPOLIS IN
1200 AM EDT SAT APR 25 2015

NOTE: "FAIR" INDICATES FEW OR NO CLOUDS BELOW 12,000 FEET WITH NO
SIGNIFICANT WEATHER AND/OR OBSTRUCTIONS TO VISIBILITY.

* - STATION DOES NOT REPORT WEATHER SUCH AS PRECIPITATION OR FOG.

+ - STATION NOT QUALITY CONTROLLED BY THE NATIONAL WEATHER SERVICE.
    USE DATA WITH CAUTION...ESPECIALLY DEWPOINT AND RELATIVE
    HUMIDITY OBSERVATIONS.

INZ001>003-010>013-019-020-250500-
NORTHWEST INDIANA

CITY           SKY/WX    TMP DP  RH WIND       PRES   REMARKS
GARY /AIRPORT/ RAIN      45  36  71 SE9       29.89F
KNOX *+        CLOUDY    52   3  14 E8        29.93R
LA PORTE +     LGT RAIN  49  35  58 E12       29.93F
MICHIGAN CITY+ LGT RAIN  45  32  61 E3        29.92F
MONTICELLO +   CLOUDY    54  32  43 E3        29.89S
RENSSELAER +   CLOUDY    52  37  58 NE9       29.89F
VALPARAISO     LGT RAIN  47  34  60 NE8       29.93R

$$

LMZ046-743>745-250500-
SOUTHERN LAKE MICHIGAN

STATION/POSITION TIME  TEMP    WIND        PRES    WAVE
                       AIR SEA DIR/SP/G            HT
                 (UTC) (F)     (DEG/KT/KT) (MB)    (FT)
BURNS HARBOR     0400   47     100/ 11/ 14 1013.2F
MICHIGAN CITY    0400   46      60/ 12/ 15   N/A
5NW MICH CITY    0400   44 44   90/ 14/ 19   N/A     3

$$

INZ004-005-014>016-021>024-250500-
NORTH CENTRAL INDIANA

CITY           SKY/WX    TMP DP  RH WIND       PRES   REMARKS
GOSHEN         CLOUDY    48  35  60 NE9       29.94S
LOGANSPORT +   RAIN      50  34  53 E5        29.91S
PERU/GRISSOM   LGT RAIN  51  38  59 E8        29.90R
ROCHESTER +    LGT RAIN  54  37  54 CALM      29.93R
SOUTH BEND     LGT RAIN  48  36  63 E8        29.96R
WARSAW +       CLOUDY    50  32  50 NE9       29.92S

$$

INZ006>009-017-018-025>027-250500-
NORTHEAST INDIANA

CITY           SKY/WX    TMP DP  RH WIND       PRES   REMARKS
ANGOLA *+      CLOUDY    46  36  66 NE10      29.95S
AUBURN +       CLOUDY    50  32  50 NE10      29.93F
FORT WAYNE     CLOUDY    51  33  50 E7        29.92F
HUNTINGTON +   CLOUDY    53  28  37 E5        29.91F

$$

INZ028-029-035-036-043>045-051>053-250500-
WEST CENTRAL INDIANA

CITY           SKY/WX    TMP DP  RH WIND       PRES   REMARKS
CRAWFORDSVL +  CLOUDY    51  29  42 E3        29.86S
GREENCASTLE +  CLOUDY    54  30  40 SE3       29.86S
LAFAYETTE      CLOUDY    52  38  58 NE9       29.87F
TERRE HAUTE    CLOUDY    58  35  42 S9        29.84F

$$

INZ030>032-037>040-046>048-054>057-064-065-250500-
CENTRAL INDIANA

CITY           SKY/WX    TMP DP  RH WIND       PRES   REMARKS
CP ATTERBURY + CLOUDY    54  32  43 SE3       29.87F
FISHERS *+     CLOUDY    54  37  54 CALM      29.88F
FRANKFORT +    CLOUDY    53  35  50 E7        29.90S
INDIANAPOLIS   CLOUDY    56  30  37 SE9       29.85F
-EAGLE CREEK   CLOUDY    56  28  34 SE9       29.86F
KOKOMO *+      CLOUDY    52  37  58 E7        29.90S
MARION +       CLOUDY    54  28  37 E6        29.91S
MT COMFORT *+  CLOUDY    54  23  30 SE3       29.88F
SHELBYVILLE    CLOUDY    57  33  40 SE6       29.88F
ZIONSVILLE +   CLOUDY    51  39  64 E3        29.89S

$$

INZ033-034-041-042-049-050-058-059-250500-
EAST CENTRAL INDIANA

CITY           SKY/WX    TMP DP  RH WIND       PRES   REMARKS
MUNCIE         CLOUDY    54  31  41 SE7       29.90F

$$

INZ060-061-067>069-081>083-085>088-250500-
SOUTHWEST INDIANA

CITY           SKY/WX    TMP DP  RH WIND       PRES   REMARKS
EVANSVILLE     CLOUDY    57  41  55 SE5       29.85F
HUNTINGBURG *+ CLOUDY    52  45  76 E6        29.86F
WASHINGTON +   CLOUDY    55  41  59 S8        29.85F

$$

INZ062-063-066-070>080-084-089>092-250500-
SOUTH CENTRAL AND SOUTHEAST INDIANA

CITY           SKY/WX    TMP DP  RH WIND       PRES   REMARKS
BEDFORD +      CLOUDY    57  32  38 S7        29.87F
BLOOMINGTON    CLOUDY    56  32  40 S6        29.86F
MADISON *+     CLOUDY    55  30  38 CALM      29.91F
NORTH VERNON + CLOUDY    57  28  33 SE6       29.88F
SEYMOUR +      CLOUDY    57  37  47 SE6       29.86F

$$




USA.gov is the U.S. government's official web portal to all federal, state and local government web resources and services.